User: anonymous   Login
Location: Tyler Bend Campground
(35.9875°N, 92.7606°W)
Time: 18:16:51
(UTC-06:00)
Language:

CZ-2C R/B - Orbit

View from above orbital plane
View from above orbital plane
View from above satellite
View from above satellite

Ground track
Ground track

The orbit data is extracted from the following two-line orbital elements,

1 36089U 09061B   17053.52795935  .00000090  00000-0  33513-4 0  9991
2 36089  98.0513  60.4229 0082902  39.5996  72.5248 14.49641159385096
Epoch (UTC): 22 February 2017 12:40:15
Eccentricity: 0.0082902
inclination: 98.0513°
perigee height: 668 km
apogee height: 786 km
right ascension of ascending node: 60.4229°
argument of perigee: 39.5996°
revolutions per day: 14.49641159
mean anomaly at epoch: 72.5248°
orbit number at epoch: 38509

The dashed part of the orbit path shows where the satellite is in the earth's shadow,  

DLR